Wind_Speed
10 11 11 10 11 11 11 12 12 11 11 11 11 11 11 10 9 8 8 7 6 5 4 3 3 2 1 1 1 1 1 1 1 1 2 2 3 3 3 3 3 3 3
12 13 13 13 13 13 13 13 13 13 13 13 13 13 12 12 11 10 9 9 8 7 6 5 4 3 2 2 2 2 1 1 0 1 1 2 2 2 2 3 3 3 3
13 14 15 14 14 14 14 15 14 14 14 14 14 14 14 13 12 11 11 10 9 8 7 6 5 4 4 3 3 3 2 2 1 0 1 1 2 2 2 2 2 3 3
14 15 15 15 16 16 16 16 15 15 15 15 15 15 15 15 14 13 12 11 10 9 8 7 6 5 5 4 4 4 3 3 2 1 1 1 2 2 2 2 3 3 3
14 15 15 15 16 17 18 17 17 16 15 16 16 16 16 16 15 15 14 13 12 10 9 8 8 7 6 6 6 5 5 4 3 2 1 2 2 2 2 2 3 3 4
14 16 16 15 16 18 18 18 18 17 16 16 17 17 18 18 17 16 15 14 13 12 11 10 9 8 8 7 7 7 6 5 4 3 3 3 3 3 3 3 3 3 4
15 16 17 17 18 19 20 19 19 18 18 18 18 18 18 18 18 17 16 15 14 13 12 11 10 10 9 9 8 8 7 7 6 5 4 4 4 4 4 4 4 4 5
16 15 16 17 18 19 20 21 21 21 20 19 19 19 19 19 18 17 17 16 15 14 13 13 12 11 11 10 10 9 9 8 7 6 5 5 5 5 5 6 6 6 6
17 16 16 18 19 20 20 21 22 22 21 21 20 20 20 20 19 18 18 17 16 15 15 14 13 12 12 12 11 11 10 9 8 8 7 7 7 6 6 7 7 8 9
18 18 17 18 19 19 20 20 21 22 22 22 22 21 21 21 20 19 19 18 18 17 16 16 15 14 13 13 13 12 12 11 10 9 8 8 8 8 8 8 9 9 10
19 18 18 19 20 20 22 22 21 22 23 23 23 23 22 22 21 20 20 20 19 18 18 17 16 15 15 14 14 14 13 12 11 11 10 9 10 10 10 10 10 11 11
22 20 19 20 20 21 21 22 23 23 24 23 24 24 24 23 22 21 21 21 20 19 19 18 17 17 16 16 15 15 15 14 13 12 12 11 12 12 12 12 12 12 12
23 22 21 20 21 22 22 22 22 23 24 24 25 24 24 23 23 22 22 21 21 20 20 19 19 18 18 17 17 17 16 15 15 14 14 14 14 13 13 13 14 14 14
24 23 21 22 23 24 23 23 24 23 24 24 24 24 24 23 23 22 22 22 22 21 21 20 20 20 20 19 19 18 18 17 16 15 15 15 15 15 15 15 16 16 16
26 25 25 24 24 24 23 24 24 24 24 25 25 25 25 24 24 23 22 23 22 22 22 22 21 21 21 21 20 20 19 19 18 17 17 17 18 17 17 17 17 18 18
27 27 28 26 25 24 24 24 24 24 24 25 25 25 24 24 25 24 22 22 22 22 23 22 22 22 21 22 22 21 21 21 21 20 19 19 19 20 19 19 19 20 20
28 28 28 27 26 26 25 25 25 25 24 24 25 24 24 25 25 26 23 22 23 24 23 23 23 23 23 23 24 23 23 22 22 22 21 21 21 21 21 21 21 21 22
29 30 29 29 29 26 25 25 25 25 24 24 25 24 24 24 25 26 25 25 24 24 24 24 24 24 25 25 24 24 24 24 24 24 24 23 23 23 24 24 24 24 24
30 30 31 30 29 28 27 27 27 26 26 26 26 26 25 24 25 26 27 27 26 26 25 25 26 26 27 26 26 26 25 26 25 25 26 26 26 26 25 26 26 27 27
33 32 31 31 31 29 28 27 25 25 25 26 27 26 25 25 26 26 27 27 27 27 26 26 26 27 28 28 28 27 27 28 28 28 28 29 29 29 29 28 28 29 29
34 34 32 32 32 31 30 27 24 24 24 25 26 26 26 27 27 28 27 27 28 28 27 27 27 28 28 29 28 27 28 29 30 30 30 31 31 31 31 31 31 31 31
34 34 34 34 33 32 30 27 26 25 25 24 25 26 27 28 29 27 28 29 29 29 29 29 29 30 30 30 30 30 30 30 30 31 32 32 32 32 32 33 34 34 34
33 34 34 33 33 32 30 29 27 27 27 27 25 25 27 28 30 31 30 30 31 31 31 31 30 31 31 31 31 32 32 32 32 33 33 34 34 35 35 35 36 37 37
32 33 33 34 33 32 32 32 30 27 27 28 27 27 27 28 29 30 30 31 32 32 31 31 32 32 32 33 34 34 34 34 34 34 35 36 35 36 37 37 38 39 39
31 32 33 34 34 33 32 32 31 30 30 28 28 29 29 29 28 28 29 30 32 33 32 33 33 33 33 35 35 36 36 36 36 37 37 37 38 38 39 39 39 39 39
29 31 32 33 33 34 34 33 32 31 31 30 29 30 30 30 29 29 29 30 33 34 34 34 35 36 36 36 36 36 37 37 37 38 38 39 39 39 40 40 39 40 40
Wind_Direction
272 272 267 260 254 245 233 229 229 228 230 233 235 238 237 236 233 233 236 235 235 237 238 238 235 230 243 252 272 292 334 10 21 12 10 14 18 20 20 17 17 20 18
271 270 267 261 254 249 240 233 233 233 235 238 241 243 243 244 241 239 240 240 240 241 241 244 242 235 239 247 255 265 270 275 329 6 359 359 7 12 12 7 5 11 11
270 270 267 262 256 251 244 239 238 238 239 241 243 245 247 248 246 244 244 245 245 244 244 246 243 239 239 244 248 252 255 254 245 277 341 343 349 354 358 353 352 356 358
268 269 266 264 257 249 247 243 241 241 242 244 246 248 249 250 250 249 250 250 248 246 248 248 243 241 241 243 245 246 246 244 241 249 301 314 325 335 342 342 340 342 345
267 268 267 269 261 253 250 248 245 243 245 246 249 250 251 252 252 251 252 252 251 251 250 249 246 244 242 242 243 244 238 234 241 247 266 286 298 312 324 331 336 335 336
267 266 266 265 264 259 253 249 247 246 246 247 250 251 252 253 253 254 254 255 254 253 250 249 249 247 243 242 241 240 235 234 242 248 254 270 281 290 304 312 318 324 326
267 265 265 263 261 259 255 251 249 248 248 248 250 251 252 253 255 256 257 256 255 254 251 251 252 249 245 243 241 237 235 236 244 251 259 266 274 283 289 293 297 303 306
263 264 267 265 262 260 258 254 252 250 251 250 250 252 253 254 255 256 257 256 255 254 253 253 252 249 246 245 242 240 240 242 249 256 260 264 273 281 287 290 293 299 301
260 261 264 264 264 261 260 257 254 250 250 252 253 255 255 255 255 256 256 255 254 254 253 252 252 250 248 248 245 244 245 246 251 257 259 263 270 276 284 291 295 300 303
261 260 261 263 263 261 260 259 257 254 252 252 254 255 256 256 256 256 256 255 254 254 254 252 250 250 250 249 248 247 248 250 253 257 259 263 269 274 279 286 292 295 299
261 260 260 263 263 259 258 258 259 257 255 255 256 255 256 257 256 256 256 254 254 254 254 252 251 249 249 250 250 250 252 253 256 256 262 266 268 273 279 283 288 289 292
262 258 260 264 263 260 257 256 257 257 256 256 256 255 255 256 256 255 255 253 253 254 253 252 250 249 250 251 252 253 254 256 256 258 264 265 267 274 278 282 287 288 289
260 262 260 264 264 260 258 257 254 254 252 253 255 255 254 255 254 254 254 254 253 252 251 251 251 250 251 252 253 254 255 257 255 259 262 263 268 274 277 279 283 285 287
258 260 261 263 261 257 257 256 254 255 251 250 252 251 251 253 253 252 253 251 250 249 249 251 251 251 251 253 255 256 257 258 259 261 263 265 270 274 276 279 283 284 286
258 259 261 263 261 254 256 256 257 256 255 253 251 250 252 253 255 253 252 249 248 247 247 249 251 252 253 254 256 257 258 261 262 264 265 268 271 273 274 277 281 284 286
255 256 259 258 259 259 259 259 260 257 258 254 254 254 254 252 253 250 248 249 247 248 249 250 250 251 253 256 259 259 261 262 263 263 267 269 271 273 275 277 281 283 285
254 255 256 258 259 260 258 257 257 256 257 258 258 258 257 254 251 250 250 249 250 253 254 250 250 251 254 257 259 261 261 263 264 265 266 268 271 274 276 279 282 283 283
253 254 255 258 258 258 258 261 259 257 257 261 260 260 262 260 257 255 254 253 253 254 254 251 254 255 255 256 258 261 262 262 264 266 268 270 271 273 277 279 281 282 283
253 252 255 257 260 259 259 262 260 256 257 260 259 257 260 262 261 258 259 259 257 256 255 256 256 256 257 257 258 260 261 262 264 267 270 271 273 276 277 278 280 281 282
251 252 254 257 259 261 261 260 256 257 258 260 259 258 258 259 260 259 262 261 258 258 257 256 255 255 256 257 258 260 261 263 265 267 270 272 274 276 277 278 280 282 283
250 250 252 254 257 258 258 260 262 263 261 261 258 259 258 258 258 260 259 259 258 256 257 257 255 256 257 257 257 259 262 265 267 267 270 272 274 277 278 280 282 283 284
251 251 252 254 256 259 261 263 266 267 265 265 264 260 257 258 257 258 258 260 261 258 257 259 256 256 256 257 258 260 263 266 268 270 271 272 275 278 280 282 283 284 285
251 252 252 254 258 261 264 265 266 267 268 269 267 265 263 262 259 259 258 259 259 260 260 258 257 257 256 257 259 261 262 264 267 268 269 271 274 277 279 281 282 284 286
253 254 254 254 256 259 262 264 265 268 273 272 270 270 271 269 266 264 261 260 260 260 261 260 260 260 258 258 261 263 263 264 265 267 268 271 273 276 277 279 282 284 285
254 255 255 255 256 258 261 262 264 267 270 270 271 272 272 273 272 268 267 265 264 263 263 261 261 259 260 262 264 264 264 265 267 267 269 271 273 275 277 279 282 284 284
255 254 255 255 256 258 260 262 264 266 268 270 272 273 273 274 273 272 271 268 265 264 264 264 262 261 260 263 264 264 265 266 268 270 272 273 274 275 278 280 282 284 286
Height
5885 5885 5886 5887 5887 5888 5888 5889 5890 5891 5892 5892 5892 5893 5893 5893 5893 5893 5893 5893 5893 5893 5893 5893 5892 5892 5892 5892 5892 5892 5892 5892 5892 5892 5893 5893 5893 5892 5892 5893 5893 5892 5892
5883 5884 5885 5885 5886 5886 5887 5888 5889 5890 5890 5891 5891 5892 5892 5892 5892 5892 5892 5892 5892 5892 5892 5892 5892 5892 5892 5892 5892 5892 5892 5892 5892 5892 5892 5893 5892 5892 5892 5893 5892 5892 5892
5881 5882 5883 5883 5884 5885 5886 5886 5887 5888 5889 5889 5890 5891 5891 5891 5891 5891 5891 5891 5891 5891 5891 5891 5891 5891 5891 5891 5891 5892 5892 5892 5892 5892 5892 5892 5892 5892 5892 5892 5892 5892 5892
5880 5880 5881 5881 5882 5883 5884 5885 5886 5886 5887 5888 5888 5889 5890 5890 5890 5890 5890 5890 5890 5890 5890 5890 5890 5890 5890 5891 5891 5891 5891 5892 5892 5892 5892 5892 5892 5892 5892 5892 5892 5892 5892
5878 5878 5879 5879 5880 5881 5882 5883 5884 5884 5885 5886 5887 5887 5888 5888 5888 5888 5888 5888 5888 5889 5889 5889 5889 5889 5890 5890 5890 5891 5891 5891 5891 5892 5892 5892 5892 5892 5892 5892 5892 5892 5891
5876 5876 5877 5877 5878 5879 5880 5880 5881 5882 5883 5883 5884 5885 5885 5886 5886 5887 5887 5887 5887 5887 5887 5888 5888 5888 5889 5889 5890 5890 5890 5891 5891 5891 5891 5892 5891 5891 5891 5891 5891 5891 5891
5874 5874 5874 5875 5875 5876 5877 5878 5879 5879 5880 5881 5881 5882 5883 5883 5884 5884 5885 5885 5885 5886 5886 5886 5887 5887 5888 5888 5888 5889 5889 5890 5890 5890 5891 5891 5891 5891 5891 5891 5890 5890 5890
5871 5871 5871 5872 5872 5873 5874 5875 5876 5877 5877 5878 5879 5879 5880 5881 5881 5882 5882 5883 5883 5884 5884 5884 5885 5886 5886 5887 5887 5888 5888 5889 5889 5889 5890 5890 5890 5890 5890 5890 5890 5890 5889
5868 5868 5868 5869 5869 5870 5871 5872 5873 5873 5874 5875 5876 5877 5877 5878 5878 5879 5879 5880 5881 5881 5882 5882 5883 5884 5885 5885 5886 5886 5887 5887 5888 5888 5888 5888 5889 5889 5889 5889 5889 5889 5888
5864 5865 5865 5865 5866 5867 5867 5868 5869 5870 5871 5872 5873 5874 5874 5875 5875 5876 5877 5877 5878 5879 5879 5880 5881 5882 5883 5883 5884 5885 5885 5885 5886 5886 5885 5886 5887 5888 5888 5888 5888 5887 5887
5860 5860 5861 5862 5862 5863 5863 5864 5865 5866 5867 5868 5869 5870 5871 5872 5872 5873 5874 5874 5875 5876 5877 5878 5879 5879 5880 5881 5882 5883 5883 5883 5884 5884 5884 5885 5886 5886 5886 5886 5886 5886 5885
5855 5855 5856 5857 5858 5859 5859 5859 5861 5862 5863 5864 5865 5866 5867 5868 5869 5870 5870 5871 5872 5873 5874 5875 5876 5877 5878 5879 5880 5880 5881 5881 5882 5882 5883 5883 5884 5884 5884 5884 5884 5883 5883
5851 5851 5849 5852 5854 5854 5855 5855 5856 5857 5858 5860 5861 5862 5863 5864 5865 5866 5866 5867 5868 5869 5871 5871 5873 5874 5875 5876 5877 5877 5878 5879 5879 5880 5881 5881 5881 5881 5881 5881 5881 5881 5881
5847 5847 5845 5846 5848 5849 5850 5851 5851 5852 5853 5855 5856 5857 5859 5859 5860 5862 5862 5863 5864 5865 5867 5868 5869 5870 5871 5873 5874 5874 5875 5875 5876 5877 5877 5878 5878 5878 5878 5878 5878 5878 5878
5843 5843 5843 5843 5842 5844 5845 5845 5846 5847 5849 5850 5851 5853 5855 5856 5856 5857 5857 5857 5858 5860 5862 5864 5865 5867 5867 5869 5870 5871 5871 5872 5873 5874 5874 5875 5875 5875 5875 5875 5875 5875 5874
5839 5838 5837 5838 5838 5839 5841 5841 5842 5843 5844 5845 5846 5848 5849 5851 5851 5852 5853 5854 5854 5856 5858 5859 5861 5863 5863 5864 5866 5867 5867 5868 5869 5870 5871 5871 5871 5871 5871 5871 5871 5871 5871
5833 5833 5831 5833 5834 5834 5836 5837 5839 5839 5839 5840 5841 5842 5844 5846 5847 5847 5847 5849 5851 5852 5854 5855 5857 5858 5860 5861 5862 5862 5863 5864 5865 5865 5866 5867 5867 5867 5867 5867 5867 5867 5866
5827 5828 5827 5829 5830 5830 5831 5833 5834 5835 5835 5836 5837 5838 5840 5841 5842 5843 5844 5845 5846 5848 5849 5851 5853 5854 5855 5856 5857 5858 5859 5860 5860 5860 5861 5862 5862 5862 5862 5862 5862 5861 5861
5821 5822 5822 5823 5824 5825 5825 5827 5828 5830 5831 5832 5832 5833 5834 5836 5837 5838 5839 5840 5842 5844 5845 5846 5847 5849 5850 5851 5852 5853 5854 5854 5855 5855 5856 5856 5857 5857 5857 5857 5856 5856 5855
5815 5817 5818 5818 5820 5820 5821 5821 5822 5823 5825 5826 5827 5827 5829 5830 5831 5832 5833 5835 5836 5838 5839 5840 5841 5842 5844 5845 5846 5847 5848 5848 5849 5850 5850 5850 5850 5850 5850 5850 5850 5850 5849
5809 5809 5811 5813 5814 5815 5815 5815 5816 5817 5818 5820 5821 5821 5822 5823 5825 5826 5827 5829 5829 5832 5833 5835 5835 5837 5838 5839 5840 5841 5842 5843 5843 5843 5844 5844 5844 5844 5844 5844 5843 5843 5843
5802 5802 5804 5806 5807 5808 5809 5810 5811 5812 5813 5814 5814 5815 5817 5818 5819 5819 5821 5823 5824 5826 5828 5829 5829 5830 5831 5833 5834 5835 5836 5837 5837 5837 5837 5837 5837 5837 5837 5837 5836 5836 5835
5796 5797 5798 5799 5801 5801 5802 5804 5805 5806 5807 5808 5809 5810 5811 5812 5813 5814 5815 5817 5818 5819 5821 5822 5823 5824 5825 5826 5828 5829 5829 5830 5830 5830 5830 5830 5831 5831 5830 5829 5829 5828 5827
5790 5791 5792 5793 5795 5796 5797 5798 5799 5801 5801 5802 5804 5805 5806 5806 5807 5808 5809 5809 5811 5813 5814 5815 5816 5817 5818 5819 5820 5821 5822 5822 5823 5823 5823 5823 5823 5823 5822 5821 5821 5820 5819
5783 5785 5786 5787 5789 5790 5791 5793 5794 5796 5797 5797 5798 5799 5800 5800 5801 5801 5802 5803 5804 5806 5807 5808 5809 5810 5811 5811 5812 5812 5813 5814 5815 5816 5816 5816 5815 5815 5814 5813 5813 5812 5810
5777 5779 5780 5781 5782 5784 5786 5787 5788 5790 5790 5791 5792 5793 5793 5794 5794 5795 5795 5796 5797 5798 5799 5800 5801 5802 5803 5803 5804 5805 5806 5806 5806 5807 5807 5807 5807 5806 5805 5805 5804 5803 5802